Weather in Zilina

Slovakia     49°13′29″N   18°44′28″E
temp.,
°C
wind,
m/s
gust,
m/s
humid.,
%
clouds,
%
prec.,
mm/h
press.,
hPa
HPBL,
m
12 may, wed
wed1223:00+13ese229439 0.0 101017
02:00+12ese11950 0.0 100915
05:00+12e11964 0.0 100813
08:00+17e12775 0.1 1007255
11:00+22s13507 0.9 10051695
14:00+21ssw2354100 0.9 1004667
17:00+18nw127524 2.2 1004113
20:00+14sw2394100 5.3 100494
13 may, thu
thu1323:00+12sw1299100 1.1 1005148
02:00+12wsw1199100 2.2 1003106
05:00+11sw2399100 2.4 1002239
08:00+9ssw2498100 5.9 1002384
11:00+9sw2797100 7.9 1003482
14:00+9sw3796100 14.8 1003615
17:00+10sw4894100 0.5 1003675
20:00+8sw2695100 0.7 1004610
14 may, fri
fri1423:00+8sw2697100 0.1 1004519
02:00+7sw3697100 0.4 1005797
05:00+7sw2798100 0.5 1006779
08:00+8wsw3791100 0.8 1008823
11:00+10sw3582100 0.3 1009879
14:00+13sw356596 0.6 10081322
17:00+13ssw246586 0.1 1008722
20:00+10ssw118636 0.1 100910
15 may, sat
sat1523:00+7se119391 0.0 101011
02:00+8ese118991 0.0 101012
05:00+8n1193100 0.6 101022
08:00+9s2296100 2.3 1010137
11:00+9e0095100 11.4 1011148
14:00+11nw118471 11.5 1009490
17:00+15sw116534 0.2 1007895
20:00+10ne008685 0.4 100710
16 may, sun
sun1623:00+7ne119434 0.0 100810
02:00+7nne119574 0.0 100910
05:00+6nne119641 0.0 100910
08:00+11nnw138044 0.0 1008434
11:00+13n347166 0.1 1008909
14:00+15nnw3465100 0.4 10071325
17:00+13nw248161 1.1 1008674
20:00+10nnw2193100 2.6 100932